Time,TemperatureF,DewpointF,PressureIn,WindDirection,WindDirectionDegrees,WindSpeedMPH,WindSpeedGustMPH,Humidity,HourlyPrecipIn,Conditions,Clouds,dailyrainin,SoftwareType,DateUTC
2013-01-30 00:01:00,68.0,66.0,30.06,SSE,164,0.0,2.0,93,0.00,,,0.00,Meteo,2013-01-30 05:01:00,
2013-01-30 00:03:00,68.0,66.0,30.06,SSE,164,1.0,2.0,93,0.00,,,0.00,Meteo,2013-01-30 05:03:00,
2013-01-30 00:04:00,68.0,66.0,30.06,SSE,164,1.0,2.0,93,0.00,,,0.00,Meteo,2013-01-30 05:04:00,
2013-01-30 00:06:00,68.0,66.0,30.06,SSE,164,1.0,2.0,93,0.00,,,0.00,Meteo,2013-01-30 05:06:00,
2013-01-30 00:11:00,68.0,66.0,30.06,SSE,164,2.0,3.0,93,0.00,,,0.00,Meteo,2013-01-30 05:11:00,
2013-01-30 00:16:00,68.0,66.0,30.06,North,0,0.0,0.0,93,0.00,,,0.00,Meteo,2013-01-30 05:16:00,
2013-01-30 00:21:00,68.0,66.0,30.06,SSE,163,0.0,1.0,93,0.00,,,0.00,Meteo,2013-01-30 05:21:00,
2013-01-30 00:26:00,68.0,66.0,30.06,North,0,0.0,0.0,93,0.00,,,0.00,Meteo,2013-01-30 05:26:00,
2013-01-30 00:31:00,68.0,66.0,30.05,SSE,163,1.0,3.0,93,0.00,,,0.00,Meteo,2013-01-30 05:31:00,
2013-01-30 00:36:00,68.0,66.0,30.05,SSE,164,1.0,3.0,93,0.00,,,0.00,Meteo,2013-01-30 05:36:00,
2013-01-30 00:42:00,68.0,66.0,30.05,North,0,0.0,0.0,93,0.00,,,0.00,Meteo,2013-01-30 05:42:00,
2013-01-30 00:47:00,68.0,66.0,30.06,SSE,164,0.0,1.0,93,0.00,,,0.00,Meteo,2013-01-30 05:47:00,
2013-01-30 00:52:00,68.0,66.0,30.06,SSE,162,0.0,1.0,93,0.00,,,0.00,Meteo,2013-01-30 05:52:00,
2013-01-30 00:57:00,68.0,66.0,30.06,SSE,163,1.0,2.0,93,0.00,,,0.00,Meteo,2013-01-30 05:57:00,
2013-01-30 01:02:00,68.0,66.0,30.05,North,0,0.0,0.0,93,0.00,,,0.00,Meteo,2013-01-30 06:02:00,
2013-01-30 01:07:00,68.0,66.0,30.05,SSE,163,1.0,2.0,93,0.00,,,0.00,Meteo,2013-01-30 06:07:00,
2013-01-30 01:12:00,68.0,66.0,30.05,SSE,163,0.0,1.0,93,0.00,,,0.00,Meteo,2013-01-30 06:12:00,
2013-01-30 01:17:00,68.0,66.0,30.05,North,0,0.0,0.0,93,0.00,,,0.00,Meteo,2013-01-30 06:17:00,
2013-01-30 01:22:00,68.0,66.0,30.05,SSE,164,1.0,2.0,94,0.00,,,0.00,Meteo,2013-01-30 06:22:00,
2013-01-30 01:27:00,67.0,65.0,30.05,North,0,0.0,0.0,94,0.00,,,0.00,Meteo,2013-01-30 06:27:00,
2013-01-30 01:32:00,67.0,65.0,30.05,SSE,163,1.0,2.0,94,0.00,,,0.00,Meteo,2013-01-30 06:32:00,
2013-01-30 01:37:00,67.0,65.0,30.05,ESE,120,1.0,5.0,94,0.00,,,0.00,Meteo,2013-01-30 06:37:00,
2013-01-30 01:42:00,67.0,65.0,30.05,SE,127,0.0,1.0,94,0.00,,,0.00,Meteo,2013-01-30 06:42:00,
2013-01-30 01:47:00,67.0,66.0,30.04,SE,130,1.0,3.0,95,0.00,,,0.00,Meteo,2013-01-30 06:47:00,
2013-01-30 01:52:00,67.0,66.0,30.04,South,174,0.0,1.0,95,0.00,,,0.00,Meteo,2013-01-30 06:52:00,
2013-01-30 01:57:00,66.0,65.0,30.04,SSE,159,0.0,1.0,96,0.00,,,0.00,Meteo,2013-01-30 06:57:00,
2013-01-30 02:02:00,66.0,65.0,30.04,SSE,158,0.0,1.0,96,0.00,,,0.00,Meteo,2013-01-30 07:02:00,
2013-01-30 02:07:00,66.0,65.0,30.04,SSE,156,0.0,3.0,96,0.00,,,0.00,Meteo,2013-01-30 07:07:00,
2013-01-30 02:12:00,66.0,65.0,30.04,SE,136,1.0,2.0,96,0.00,,,0.00,Meteo,2013-01-30 07:12:00,
2013-01-30 02:17:00,66.0,65.0,30.04,SSE,155,0.0,2.0,96,0.00,,,0.00,Meteo,2013-01-30 07:17:00,
2013-01-30 02:22:00,66.0,65.0,30.04,SE,140,0.0,1.0,96,0.00,,,0.00,Meteo,2013-01-30 07:22:00,
2013-01-30 02:27:00,66.0,65.0,30.04,SE,139,0.0,2.0,97,0.00,,,0.00,Meteo,2013-01-30 07:27:00,
2013-01-30 02:32:00,66.0,65.0,30.03,SE,139,0.0,1.0,97,0.00,,,0.00,Meteo,2013-01-30 07:32:00,
2013-01-30 02:37:00,66.0,65.0,30.03,North,0,0.0,0.0,97,0.00,,,0.00,Meteo,2013-01-30 07:37:00,
2013-01-30 02:42:00,66.0,65.0,30.03,SE,141,0.0,2.0,97,0.00,,,0.00,Meteo,2013-01-30 07:42:00,
2013-01-30 02:47:00,66.0,65.0,30.03,North,0,0.0,0.0,97,0.00,,,0.00,Meteo,2013-01-30 07:47:00,
2013-01-30 02:52:00,65.0,64.0,30.03,North,0,0.0,0.0,97,0.00,,,0.00,Meteo,2013-01-30 07:52:00,
2013-01-30 02:57:00,65.0,64.0,30.03,North,0,0.0,0.0,97,0.00,,,0.00,Meteo,2013-01-30 07:57:00,
2013-01-30 03:02:00,65.0,64.0,30.03,North,0,0.0,0.0,97,0.00,,,0.00,Meteo,2013-01-30 08:02:00,
2013-01-30 03:07:00,65.0,64.0,30.03,North,0,0.0,0.0,97,0.00,,,0.00,Meteo,2013-01-30 08:07:00,
2013-01-30 03:12:00,65.0,64.0,30.03,North,0,0.0,0.0,97,0.00,,,0.00,Meteo,2013-01-30 08:12:00,
2013-01-30 03:17:00,65.0,64.0,30.03,North,0,0.0,0.0,97,0.00,,,0.00,Meteo,2013-01-30 08:17:00,
2013-01-30 03:22:00,64.0,63.0,30.03,North,0,0.0,0.0,97,0.00,,,0.00,Meteo,2013-01-30 08:22:00,
2013-01-30 03:27:00,64.0,63.0,30.03,North,0,0.0,0.0,97,0.00,,,0.00,Meteo,2013-01-30 08:27:00,
2013-01-30 03:32:00,64.0,63.0,30.02,North,0,0.0,0.0,97,0.00,,,0.00,Meteo,2013-01-30 08:32:00,
2013-01-30 03:37:00,63.0,62.0,30.02,North,0,0.0,0.0,97,0.00,,,0.00,Meteo,2013-01-30 08:37:00,
2013-01-30 03:42:00,63.0,62.0,30.02,North,0,0.0,0.0,97,0.00,,,0.00,Meteo,2013-01-30 08:42:00,
2013-01-30 03:47:00,63.0,62.0,30.02,North,0,0.0,0.0,97,0.00,,,0.00,Meteo,2013-01-30 08:47:00,
2013-01-30 03:52:00,63.0,62.0,30.02,North,0,0.0,0.0,97,0.00,,,0.00,Meteo,2013-01-30 08:52:00,
2013-01-30 03:57:00,63.0,62.0,30.02,North,0,0.0,0.0,97,0.00,,,0.00,Meteo,2013-01-30 08:57:00,
2013-01-30 04:02:00,62.0,61.0,30.01,North,0,0.0,0.0,97,0.00,,,0.00,Meteo,2013-01-30 09:02:00,
2013-01-30 04:07:00,62.0,61.0,30.01,North,0,0.0,0.0,97,0.00,,,0.00,Meteo,2013-01-30 09:07:00,
2013-01-30 04:12:00,62.0,61.0,30.01,SE,141,0.0,2.0,98,0.00,,,0.00,Meteo,2013-01-30 09:12:00,
2013-01-30 04:17:00,62.0,61.0,30.01,North,0,0.0,0.0,98,0.00,,,0.00,Meteo,2013-01-30 09:17:00,
2013-01-30 04:22:00,62.0,61.0,30.01,North,0,0.0,0.0,98,0.00,,,0.00,Meteo,2013-01-30 09:22:00,
2013-01-30 04:27:00,62.0,61.0,30.01,SE,141,1.0,2.0,98,0.00,,,0.00,Meteo,2013-01-30 09:27:00,
2013-01-30 04:32:00,62.0,61.0,30.00,North,0,0.0,0.0,98,0.00,,,0.00,Meteo,2013-01-30 09:32:00,
2013-01-30 04:37:00,62.0,61.0,30.00,North,0,0.0,0.0,98,0.00,,,0.00,Meteo,2013-01-30 09:37:00,
2013-01-30 04:42:00,62.0,61.0,30.00,North,0,0.0,0.0,98,0.00,,,0.00,Meteo,2013-01-30 09:42:00,
2013-01-30 04:47:00,62.0,61.0,30.00,North,0,0.0,0.0,98,0.00,,,0.00,Meteo,2013-01-30 09:47:00,
2013-01-30 04:52:00,63.0,62.0,30.00,SSE,168,2.0,3.0,98,0.00,,,0.00,Meteo,2013-01-30 09:52:00,
2013-01-30 04:58:00,63.0,62.0,30.00,SSW,196,0.0,2.0,98,0.00,,,0.00,Meteo,2013-01-30 09:58:00,
2013-01-30 05:03:00,63.0,62.0,30.01,North,0,0.0,0.0,98,0.00,,,0.00,Meteo,2013-01-30 10:03:00,
2013-01-30 05:08:00,63.0,62.0,30.01,SSW,196,0.0,2.0,98,0.00,,,0.00,Meteo,2013-01-30 10:08:00,
2013-01-30 05:13:00,63.0,62.0,30.01,SSW,195,0.0,1.0,98,0.00,,,0.00,Meteo,2013-01-30 10:13:00,
2013-01-30 05:18:00,63.0,62.0,30.01,SSW,195,0.0,1.0,98,0.00,,,0.00,Meteo,2013-01-30 10:18:00,
2013-01-30 05:23:00,63.0,62.0,30.01,North,0,0.0,0.0,98,0.00,,,0.00,Meteo,2013-01-30 10:23:00,
2013-01-30 05:28:00,63.0,62.0,30.01,North,0,0.0,0.0,98,0.00,,,0.00,Meteo,2013-01-30 10:28:00,
2013-01-30 05:33:00,63.0,62.0,30.01,North,0,0.0,0.0,98,0.00,,,0.00,Meteo,2013-01-30 10:33:00,
2013-01-30 05:38:00,62.0,61.0,30.01,North,0,0.0,0.0,98,0.00,,,0.00,Meteo,2013-01-30 10:38:00,
2013-01-30 05:43:00,62.0,61.0,30.01,SSW,196,1.0,2.0,98,0.00,,,0.00,Meteo,2013-01-30 10:43:00,
2013-01-30 05:48:00,62.0,61.0,30.00,SSW,196,0.0,1.0,98,0.00,,,0.00,Meteo,2013-01-30 10:48:00,
2013-01-30 05:53:00,62.0,61.0,30.00,North,0,0.0,0.0,98,0.00,,,0.00,Meteo,2013-01-30 10:53:00,
2013-01-30 05:58:00,62.0,61.0,30.00,North,0,0.0,0.0,98,0.00,,,0.00,Meteo,2013-01-30 10:58:00,
2013-01-30 06:03:00,62.0,61.0,30.01,SSW,196,1.0,2.0,98,0.00,,,0.00,Meteo,2013-01-30 11:03:00,
2013-01-30 06:08:00,62.0,61.0,30.01,North,0,0.0,0.0,98,0.00,,,0.00,Meteo,2013-01-30 11:08:00,
2013-01-30 06:13:00,62.0,61.0,30.01,SSW,196,1.0,2.0,98,0.00,,,0.00,Meteo,2013-01-30 11:13:00,
2013-01-30 06:18:00,62.0,61.0,30.01,North,0,0.0,0.0,98,0.00,,,0.00,Meteo,2013-01-30 11:18:00,
2013-01-30 06:23:00,62.0,61.0,30.01,SSW,195,1.0,2.0,98,0.00,,,0.00,Meteo,2013-01-30 11:23:00,
2013-01-30 06:28:00,62.0,61.0,30.01,SE,128,1.0,3.0,98,0.00,,,0.00,Meteo,2013-01-30 11:28:00,
2013-01-30 06:33:00,62.0,61.0,30.00,SSE,152,0.0,2.0,98,0.00,,,0.00,Meteo,2013-01-30 11:33:00,
2013-01-30 06:38:00,62.0,61.0,30.00,North,0,0.0,0.0,98,0.00,,,0.00,Meteo,2013-01-30 11:38:00,
2013-01-30 06:43:00,62.0,61.0,30.00,SE,146,0.0,3.0,98,0.00,,,0.00,Meteo,2013-01-30 11:43:00,
2013-01-30 06:48:00,62.0,61.0,30.00,North,0,0.0,0.0,98,0.00,,,0.00,Meteo,2013-01-30 11:48:00,
2013-01-30 06:53:00,62.0,61.0,30.00,SSE,158,1.0,1.0,98,0.00,,,0.00,Meteo,2013-01-30 11:53:00,
2013-01-30 06:58:00,62.0,61.0,30.00,SSE,164,2.0,3.0,98,0.00,,,0.00,Meteo,2013-01-30 11:58:00,
2013-01-30 07:03:00,63.0,62.0,30.00,South,182,1.0,2.0,98,0.00,,,0.00,Meteo,2013-01-30 12:03:00,
2013-01-30 07:08:00,63.0,62.0,30.00,South,182,1.0,2.0,98,0.00,,,0.00,Meteo,2013-01-30 12:08:00,
2013-01-30 07:13:00,63.0,62.0,30.00,SSE,153,2.0,3.0,98,0.00,,,0.00,Meteo,2013-01-30 12:13:00,
2013-01-30 07:18:00,63.0,62.0,30.00,North,0,0.0,0.0,98,0.00,,,0.00,Meteo,2013-01-30 12:18:00,
2013-01-30 07:23:00,63.0,62.0,30.00,SSW,195,0.0,3.0,98,0.00,,,0.00,Meteo,2013-01-30 12:23:00,
2013-01-30 07:29:00,63.0,62.0,30.00,SE,140,1.0,2.0,98,0.00,,,0.00,Meteo,2013-01-30 12:29:00,
2013-01-30 07:34:00,63.0,62.0,29.99,SE,140,1.0,2.0,98,0.00,,,0.00,Meteo,2013-01-30 12:34:00,
2013-01-30 07:39:00,63.0,62.0,29.99,SSE,151,0.0,1.0,98,0.00,,,0.00,Meteo,2013-01-30 12:39:00,
2013-01-30 07:44:00,63.0,62.0,29.99,SSE,155,1.0,3.0,98,0.00,,,0.00,Meteo,2013-01-30 12:44:00,
2013-01-30 07:49:00,64.0,63.0,29.99,South,185,2.0,5.0,98,0.00,,,0.00,Meteo,2013-01-30 12:49:00,
2013-01-30 07:54:00,64.0,63.0,29.99,SSW,213,1.0,2.0,98,0.00,,,0.00,Meteo,2013-01-30 12:54:00,
2013-01-30 07:59:00,64.0,63.0,29.99,South,183,2.0,3.0,98,0.00,,,0.00,Meteo,2013-01-30 12:59:00,
2013-01-30 08:04:00,64.0,63.0,30.00,SSW,195,2.0,5.0,98,0.00,,,0.00,Meteo,2013-01-30 13:04:00,
2013-01-30 08:09:00,64.0,63.0,30.00,South,171,1.0,2.0,98,0.00,,,0.00,Meteo,2013-01-30 13:09:00,
2013-01-30 08:14:00,64.0,63.0,30.00,South,169,1.0,3.0,98,0.00,,,0.00,Meteo,2013-01-30 13:14:00,
2013-01-30 08:19:00,65.0,64.0,30.00,South,188,2.0,6.0,98,0.00,,,0.00,Meteo,2013-01-30 13:19:00,
2013-01-30 08:24:00,65.0,64.0,30.00,SSW,195,2.0,5.0,98,0.00,,,0.00,Meteo,2013-01-30 13:24:00,
2013-01-30 08:29:00,65.0,64.0,30.00,SSE,147,4.0,10.0,98,0.00,,,0.00,Meteo,2013-01-30 13:29:00,
2013-01-30 08:34:00,65.0,64.0,29.99,SSW,197,3.0,3.0,98,0.00,,,0.00,Meteo,2013-01-30 13:34:00,
2013-01-30 08:39:00,66.0,65.0,29.99,SSE,151,3.0,3.0,98,0.00,,,0.00,Meteo,2013-01-30 13:39:00,
2013-01-30 08:44:00,66.0,65.0,29.99,ESE,110,2.0,2.0,98,0.00,,,0.00,Meteo,2013-01-30 13:44:00,
2013-01-30 08:49:00,67.0,66.0,29.99,SSW,209,2.0,4.0,98,0.00,,,0.00,Meteo,2013-01-30 13:49:00,
2013-01-30 08:54:00,67.0,66.0,29.99,South,191,3.0,5.0,97,0.00,,,0.00,Meteo,2013-01-30 13:54:00,
2013-01-30 08:59:00,67.0,66.0,29.99,SW,219,4.0,10.0,96,0.00,,,0.00,Meteo,2013-01-30 13:59:00,
2013-01-30 09:04:00,68.0,66.0,29.99,South,175,4.0,13.0,94,0.00,,,0.00,Meteo,2013-01-30 14:04:00,
2013-01-30 09:09:00,68.0,65.0,29.99,South,183,5.0,11.0,91,0.00,,,0.00,Meteo,2013-01-30 14:09:00,
2013-01-30 09:14:00,69.0,66.0,29.99,SSW,200,5.0,8.0,89,0.00,,,0.00,Meteo,2013-01-30 14:14:00,
2013-01-30 09:19:00,70.0,66.0,29.98,South,180,4.0,10.0,87,0.00,,,0.00,Meteo,2013-01-30 14:19:00,
2013-01-30 09:24:00,71.0,66.0,29.98,SSW,193,8.0,14.0,84,0.00,,,0.00,Meteo,2013-01-30 14:24:00,
2013-01-30 09:29:00,72.0,66.0,29.98,SSW,199,9.0,14.0,82,0.00,,,0.00,Meteo,2013-01-30 14:29:00,
2013-01-30 09:34:00,72.0,65.0,29.98,SSW,204,7.0,12.0,80,0.00,,,0.00,Meteo,2013-01-30 14:34:00,
2013-01-30 09:39:00,73.0,66.0,29.98,South,188,11.0,17.0,79,0.00,,,0.00,Meteo,2013-01-30 14:39:00,
2013-01-30 09:44:00,73.0,65.0,29.98,South,187,8.0,14.0,76,0.00,,,0.00,Meteo,2013-01-30 14:44:00,
2013-01-30 09:49:00,74.0,66.0,29.98,South,171,6.0,20.0,75,0.00,,,0.00,Meteo,2013-01-30 14:49:00,
2013-01-30 09:54:00,74.0,65.0,29.98,South,190,7.0,18.0,74,0.00,,,0.00,Meteo,2013-01-30 14:54:00,
2013-01-30 09:59:00,74.0,65.0,29.98,South,171,4.0,7.0,73,0.00,,,0.00,Meteo,2013-01-30 14:59:00,
2013-01-30 10:04:00,75.0,65.0,29.96,SSW,200,8.0,20.0,71,0.00,,,0.00,Meteo,2013-01-30 15:04:00,
2013-01-30 10:09:00,75.0,65.0,29.96,South,189,7.0,16.0,70,0.00,,,0.00,Meteo,2013-01-30 15:09:00,
2013-01-30 10:14:00,76.0,66.0,29.96,SSW,196,2.0,6.0,70,0.00,,,0.00,Meteo,2013-01-30 15:14:00,
2013-01-30 10:19:00,76.0,65.0,29.97,South,186,4.0,14.0,68,0.00,,,0.00,Meteo,2013-01-30 15:19:00,
2013-01-30 10:24:00,77.0,65.0,29.97,SSE,156,2.0,8.0,67,0.00,,,0.00,Meteo,2013-01-30 15:24:00,
2013-01-30 10:29:00,77.0,65.0,29.97,SSE,154,4.0,12.0,67,0.00,,,0.00,Meteo,2013-01-30 15:29:00,
2013-01-30 10:34:00,77.0,65.0,29.96,SSW,205,11.0,20.0,67,0.00,,,0.00,Meteo,2013-01-30 15:34:00,
2013-01-30 10:39:00,78.0,65.0,29.96,South,187,5.0,8.0,65,0.00,,,0.00,Meteo,2013-01-30 15:39:00,
2013-01-30 10:44:00,78.0,65.0,29.96,SSW,196,11.0,18.0,65,0.00,,,0.00,Meteo,2013-01-30 15:44:00,
2013-01-30 10:49:00,77.0,64.0,29.95,SSW,196,8.0,19.0,65,0.00,,,0.00,Meteo,2013-01-30 15:49:00,
2013-01-30 10:54:00,77.0,64.0,29.95,SSW,195,10.0,22.0,65,0.00,,,0.00,Meteo,2013-01-30 15:54:00,
2013-01-30 10:59:00,78.0,64.0,29.95,South,174,5.0,9.0,63,0.00,,,0.00,Meteo,2013-01-30 15:59:00,
2013-01-30 11:04:00,78.0,63.0,29.95,SSW,192,12.0,19.0,61,0.00,,,0.00,Meteo,2013-01-30 16:04:00,
2013-01-30 11:09:00,79.0,64.0,29.95,SSW,200,11.0,18.0,61,0.00,,,0.00,Meteo,2013-01-30 16:09:00,
2013-01-30 11:14:00,79.0,64.0,29.95,South,184,5.0,12.0,60,0.00,,,0.00,Meteo,2013-01-30 16:14:00,
2013-01-30 11:19:00,79.0,63.0,29.94,South,191,6.0,20.0,59,0.00,,,0.00,Meteo,2013-01-30 16:19:00,
2013-01-30 11:24:00,79.0,64.0,29.94,SSW,197,6.0,8.0,60,0.00,,,0.00,Meteo,2013-01-30 16:24:00,
2013-01-30 11:29:00,80.0,64.0,29.94,SSW,209,12.0,18.0,58,0.00,,,0.00,Meteo,2013-01-30 16:29:00,
2013-01-30 11:34:00,80.0,64.0,29.94,SW,216,6.0,11.0,59,0.00,,,0.00,Meteo,2013-01-30 16:34:00,
2013-01-30 11:40:00,80.0,63.0,29.94,SSE,161,6.0,9.0,57,0.00,,,0.00,Meteo,2013-01-30 16:40:00,
2013-01-30 11:45:00,81.0,64.0,29.94,SSW,193,10.0,18.0,56,0.00,,,0.00,Meteo,2013-01-30 16:45:00,
2013-01-30 11:50:00,80.0,63.0,29.94,South,186,8.0,13.0,57,0.00,,,0.00,Meteo,2013-01-30 16:50:00,
2013-01-30 11:55:00,80.0,63.0,29.94,South,184,6.0,12.0,57,0.00,,,0.00,Meteo,2013-01-30 16:55:00,
2013-01-30 12:00:00,81.0,64.0,29.92,South,183,6.0,14.0,56,0.00,,,0.00,Meteo,2013-01-30 17:00:00,
2013-01-30 12:05:00,81.0,64.0,29.92,SSW,202,8.0,13.0,56,0.00,,,0.00,Meteo,2013-01-30 17:05:00,
2013-01-30 12:10:00,81.0,63.0,29.92,SSW,199,8.0,16.0,55,0.00,,,0.00,Meteo,2013-01-30 17:10:00,
2013-01-30 12:15:00,81.0,64.0,29.92,SSW,206,9.0,17.0,56,0.00,,,0.00,Meteo,2013-01-30 17:15:00,
2013-01-30 12:20:00,82.0,64.0,29.91,SSW,194,10.0,18.0,55,0.00,,,0.00,Meteo,2013-01-30 17:20:00,
2013-01-30 12:25:00,81.0,63.0,29.91,SSW,205,12.0,17.0,54,0.00,,,0.00,Meteo,2013-01-30 17:25:00,
2013-01-30 12:30:00,82.0,64.0,29.91,SSW,197,8.0,17.0,55,0.00,,,0.00,Meteo,2013-01-30 17:30:00,
2013-01-30 12:35:00,82.0,64.0,29.91,SSE,167,6.0,14.0,55,0.00,,,0.00,Meteo,2013-01-30 17:35:00,
2013-01-30 12:40:00,82.0,64.0,29.91,SSW,192,10.0,22.0,54,0.00,,,0.00,Meteo,2013-01-30 17:40:00,
2013-01-30 12:45:00,82.0,64.0,29.91,SSW,196,5.0,11.0,54,0.00,,,0.00,Meteo,2013-01-30 17:45:00,
2013-01-30 12:50:00,83.0,64.0,29.91,SSE,156,5.0,12.0,53,0.00,,,0.00,Meteo,2013-01-30 17:50:00,
2013-01-30 12:55:00,83.0,63.0,29.91,SSW,197,11.0,16.0,51,0.00,,,0.00,Meteo,2013-01-30 17:55:00,
2013-01-30 13:00:00,83.0,64.0,29.91,South,190,3.0,8.0,52,0.00,,,0.00,Meteo,2013-01-30 18:00:00,
2013-01-30 13:02:00,83.0,63.0,29.90,SSW,212,10.0,16.0,51,0.00,,,0.00,Meteo,2013-01-30 18:02:00,
2013-01-30 13:05:00,83.0,64.0,29.90,SW,218,7.0,16.0,52,0.00,,,0.00,Meteo,2013-01-30 18:05:00,
2013-01-30 13:10:00,82.0,63.0,29.90,SSW,197,9.0,14.0,53,0.00,,,0.00,Meteo,2013-01-30 18:10:00,
2013-01-30 13:15:00,82.0,63.0,29.91,SSW,203,7.0,12.0,53,0.00,,,0.00,Meteo,2013-01-30 18:15:00,
2013-01-30 13:20:00,81.0,63.0,29.91,SSW,205,8.0,13.0,54,0.00,,,0.00,Meteo,2013-01-30 18:20:00,
2013-01-30 13:25:00,81.0,63.0,29.91,SSW,192,8.0,12.0,54,0.00,,,0.00,Meteo,2013-01-30 18:25:00,
2013-01-30 13:30:00,82.0,63.0,29.89,South,189,7.0,14.0,52,0.00,,,0.00,Meteo,2013-01-30 18:30:00,
2013-01-30 13:35:00,82.0,62.0,29.88,SSW,194,9.0,14.0,51,0.00,,,0.00,Meteo,2013-01-30 18:35:00,
2013-01-30 13:40:00,82.0,63.0,29.88,SSW,201,12.0,19.0,52,0.00,,,0.00,Meteo,2013-01-30 18:40:00,
2013-01-30 13:45:00,82.0,63.0,29.88,SSW,200,13.0,21.0,52,0.00,,,0.00,Meteo,2013-01-30 18:45:00,
2013-01-30 13:50:00,82.0,62.0,29.88,South,189,10.0,14.0,51,0.00,,,0.00,Meteo,2013-01-30 18:50:00,
2013-01-30 13:55:00,83.0,62.0,29.88,SSW,201,12.0,19.0,50,0.00,,,0.00,Meteo,2013-01-30 18:55:00,
2013-01-30 14:00:00,83.0,62.0,29.88,SSW,195,4.0,10.0,50,0.00,,,0.00,Meteo,2013-01-30 19:00:00,
2013-01-30 14:05:00,83.0,62.0,29.88,SSW,194,9.0,14.0,49,0.00,,,0.00,Meteo,2013-01-30 19:05:00,
2013-01-30 14:10:00,83.0,62.0,29.88,SW,217,10.0,19.0,49,0.00,,,0.00,Meteo,2013-01-30 19:10:00,
2013-01-30 14:15:00,83.0,62.0,29.88,South,190,11.0,18.0,50,0.00,,,0.00,Meteo,2013-01-30 19:15:00,
2013-01-30 14:21:00,82.0,62.0,29.88,SSW,212,9.0,18.0,51,0.00,,,0.00,Meteo,2013-01-30 19:21:00,
2013-01-30 14:26:00,82.0,62.0,29.88,SSW,213,11.0,22.0,51,0.00,,,0.00,Meteo,2013-01-30 19:26:00,
2013-01-30 14:31:00,82.0,63.0,29.87,South,187,6.0,13.0,52,0.00,,,0.00,Meteo,2013-01-30 19:31:00,
2013-01-30 14:36:00,82.0,63.0,29.87,South,186,12.0,20.0,52,0.00,,,0.00,Meteo,2013-01-30 19:36:00,
2013-01-30 14:41:00,82.0,63.0,29.87,South,187,8.0,14.0,52,0.00,,,0.00,Meteo,2013-01-30 19:41:00,
2013-01-30 14:46:00,82.0,63.0,29.87,SSW,192,12.0,21.0,52,0.00,,,0.00,Meteo,2013-01-30 19:46:00,
2013-01-30 14:51:00,82.0,63.0,29.87,SSW,204,8.0,13.0,53,0.00,,,0.00,Meteo,2013-01-30 19:51:00,
2013-01-30 14:56:00,83.0,64.0,29.87,SSW,195,11.0,19.0,53,0.00,,,0.00,Meteo,2013-01-30 19:56:00,
2013-01-30 15:01:00,82.0,64.0,29.87,South,184,8.0,18.0,54,0.00,,,0.00,Meteo,2013-01-30 20:01:00,
2013-01-30 15:06:00,82.0,63.0,29.86,SSW,196,12.0,25.0,53,0.00,,,0.00,Meteo,2013-01-30 20:06:00,
2013-01-30 15:11:00,82.0,63.0,29.86,SSW,205,11.0,18.0,53,0.00,,,0.00,Meteo,2013-01-30 20:11:00,
2013-01-30 15:16:00,82.0,63.0,29.86,SSW,193,12.0,25.0,53,0.00,,,0.00,Meteo,2013-01-30 20:16:00,
2013-01-30 15:21:00,82.0,64.0,29.86,South,189,11.0,21.0,54,0.00,,,0.00,Meteo,2013-01-30 20:21:00,
2013-01-30 15:26:00,82.0,63.0,29.86,SSW,206,13.0,18.0,52,0.00,,,0.00,Meteo,2013-01-30 20:26:00,
2013-01-30 15:31:00,82.0,63.0,29.85,SSW,208,5.0,8.0,52,0.00,,,0.00,Meteo,2013-01-30 20:31:00,
2013-01-30 15:36:00,82.0,63.0,29.85,South,181,7.0,16.0,53,0.00,,,0.00,Meteo,2013-01-30 20:36:00,
2013-01-30 15:41:00,82.0,63.0,29.85,SSW,203,7.0,12.0,52,0.00,,,0.00,Meteo,2013-01-30 20:41:00,
2013-01-30 15:46:00,82.0,63.0,29.86,SSW,212,11.0,18.0,52,0.00,,,0.00,Meteo,2013-01-30 20:46:00,
2013-01-30 15:51:00,82.0,63.0,29.86,SW,219,9.0,17.0,53,0.00,,,0.00,Meteo,2013-01-30 20:51:00,
2013-01-30 15:56:00,82.0,63.0,29.86,SW,219,6.0,14.0,53,0.00,,,0.00,Meteo,2013-01-30 20:56:00,
2013-01-30 16:01:00,82.0,64.0,29.85,SSW,194,12.0,19.0,54,0.00,,,0.00,Meteo,2013-01-30 21:01:00,
2013-01-30 16:06:00,82.0,64.0,29.85,SSW,209,8.0,11.0,54,0.00,,,0.00,Meteo,2013-01-30 21:06:00,
2013-01-30 16:11:00,82.0,63.0,29.85,South,188,5.0,7.0,53,0.00,,,0.00,Meteo,2013-01-30 21:11:00,
2013-01-30 16:16:00,82.0,63.0,29.84,South,186,4.0,6.0,53,0.00,,,0.00,Meteo,2013-01-30 21:16:00,
2013-01-30 16:21:00,82.0,63.0,29.84,South,191,8.0,15.0,53,0.00,,,0.00,Meteo,2013-01-30 21:21:00,
2013-01-30 16:26:00,82.0,63.0,29.84,South,189,6.0,10.0,53,0.00,,,0.00,Meteo,2013-01-30 21:26:00,
2013-01-30 16:31:00,82.0,63.0,29.84,SSW,206,11.0,20.0,53,0.00,,,0.00,Meteo,2013-01-30 21:31:00,
2013-01-30 16:36:00,82.0,64.0,29.84,SSW,195,2.0,6.0,55,0.00,,,0.00,Meteo,2013-01-30 21:36:00,
2013-01-30 16:41:00,82.0,64.0,29.84,SSW,198,6.0,12.0,54,0.00,,,0.00,Meteo,2013-01-30 21:41:00,
2013-01-30 16:46:00,81.0,62.0,29.85,SSW,210,10.0,15.0,53,0.00,,,0.00,Meteo,2013-01-30 21:46:00,
2013-01-30 16:51:00,81.0,63.0,29.85,SSW,194,9.0,19.0,54,0.00,,,0.00,Meteo,2013-01-30 21:51:00,
2013-01-30 16:56:00,81.0,63.0,29.85,SSW,207,4.0,10.0,54,0.00,,,0.00,Meteo,2013-01-30 21:56:00,
2013-01-30 17:01:00,81.0,63.0,29.84,SSW,200,9.0,12.0,54,0.00,,,0.00,Meteo,2013-01-30 22:01:00,
2013-01-30 17:06:00,81.0,63.0,29.84,SSW,201,7.0,13.0,55,0.00,,,0.00,Meteo,2013-01-30 22:06:00,
2013-01-30 17:11:00,81.0,63.0,29.84,SSW,198,7.0,12.0,55,0.00,,,0.00,Meteo,2013-01-30 22:11:00,
2013-01-30 17:16:00,81.0,63.0,29.83,South,187,3.0,8.0,55,0.00,,,0.00,Meteo,2013-01-30 22:16:00,
2013-01-30 17:21:00,81.0,63.0,29.83,SSW,195,8.0,13.0,55,0.00,,,0.00,Meteo,2013-01-30 22:21:00,
2013-01-30 17:26:00,80.0,63.0,29.83,South,191,6.0,11.0,56,0.00,,,0.00,Meteo,2013-01-30 22:26:00,
2013-01-30 17:31:00,80.0,63.0,29.83,SSW,200,8.0,14.0,56,0.00,,,0.00,Meteo,2013-01-30 22:31:00,
2013-01-30 17:36:00,80.0,63.0,29.83,SSW,205,7.0,10.0,56,0.00,,,0.00,Meteo,2013-01-30 22:36:00,
2013-01-30 17:41:00,80.0,63.0,29.83,SSW,197,8.0,12.0,56,0.00,,,0.00,Meteo,2013-01-30 22:41:00,
2013-01-30 17:46:00,80.0,63.0,29.84,SSW,213,3.0,4.0,56,0.00,,,0.00,Meteo,2013-01-30 22:46:00,
2013-01-30 17:51:00,80.0,63.0,29.84,SSW,207,6.0,18.0,56,0.00,,,0.00,Meteo,2013-01-30 22:51:00,
2013-01-30 17:56:00,80.0,63.0,29.84,SSW,204,5.0,13.0,56,0.00,,,0.00,Meteo,2013-01-30 22:56:00,
2013-01-30 18:01:00,80.0,63.0,29.83,SSW,204,4.0,14.0,57,0.00,,,0.00,Meteo,2013-01-30 23:01:00,
2013-01-30 18:06:00,79.0,62.0,29.83,SSW,205,2.0,3.0,57,0.00,,,0.00,Meteo,2013-01-30 23:06:00,
2013-01-30 18:11:00,79.0,63.0,29.83,SSW,196,4.0,7.0,58,0.00,,,0.00,Meteo,2013-01-30 23:11:00,
2013-01-30 18:16:00,79.0,63.0,29.83,South,175,3.0,7.0,59,0.00,,,0.00,Meteo,2013-01-30 23:16:00,
2013-01-30 18:21:00,78.0,63.0,29.83,SSW,206,2.0,5.0,59,0.00,,,0.00,Meteo,2013-01-30 23:21:00,
2013-01-30 18:26:00,78.0,63.0,29.83,South,185,1.0,6.0,60,0.00,,,0.00,Meteo,2013-01-30 23:26:00,
2013-01-30 18:31:00,78.0,63.0,29.82,SSW,200,2.0,5.0,61,0.00,,,0.00,Meteo,2013-01-30 23:31:00,
2013-01-30 18:36:00,77.0,63.0,29.82,SSW,203,3.0,5.0,62,0.00,,,0.00,Meteo,2013-01-30 23:36:00,
2013-01-30 18:41:00,77.0,63.0,29.82,SSW,203,2.0,4.0,63,0.00,,,0.00,Meteo,2013-01-30 23:41:00,
2013-01-30 18:46:00,76.0,63.0,29.83,SSW,196,1.0,3.0,63,0.00,,,0.00,Meteo,2013-01-30 23:46:00,
2013-01-30 18:51:00,76.0,63.0,29.83,SSW,195,3.0,6.0,64,0.00,,,0.00,Meteo,2013-01-30 23:51:00,
2013-01-30 18:56:00,76.0,63.0,29.83,SSW,205,4.0,8.0,64,0.00,,,0.00,Meteo,2013-01-30 23:56:00,
2013-01-30 19:01:00,76.0,63.0,29.83,SSW,198,7.0,9.0,63,0.00,,,0.00,Meteo,2013-01-31 00:01:00,
2013-01-30 19:06:00,76.0,63.0,29.83,SSW,199,5.0,6.0,63,0.00,,,0.00,Meteo,2013-01-31 00:06:00,
2013-01-30 19:11:00,76.0,63.0,29.83,SSW,192,5.0,8.0,64,0.00,,,0.00,Meteo,2013-01-31 00:11:00,
2013-01-30 19:16:00,76.0,63.0,29.83,South,191,5.0,7.0,64,0.00,,,0.00,Meteo,2013-01-31 00:16:00,
2013-01-30 19:21:00,76.0,63.0,29.83,SSW,207,10.0,16.0,65,0.00,,,0.00,Meteo,2013-01-31 00:21:00,
2013-01-30 19:26:00,76.0,64.0,29.83,SW,222,7.0,12.0,66,0.00,,,0.00,Meteo,2013-01-31 00:26:00,
2013-01-30 19:31:00,76.0,64.0,29.84,SW,225,7.0,14.0,66,0.00,,,0.00,Meteo,2013-01-31 00:31:00,
2013-01-30 19:36:00,76.0,64.0,29.84,SW,224,10.0,14.0,66,0.00,,,0.00,Meteo,2013-01-31 00:36:00,
2013-01-30 19:41:00,76.0,64.0,29.84,SW,214,5.0,10.0,66,0.00,,,0.00,Meteo,2013-01-31 00:41:00,
2013-01-30 19:46:00,76.0,64.0,29.85,SW,216,12.0,18.0,66,0.00,,,0.00,Meteo,2013-01-31 00:46:00,
2013-01-30 19:51:00,76.0,63.0,29.85,SW,228,10.0,14.0,65,0.00,,,0.00,Meteo,2013-01-31 00:51:00,
2013-01-30 19:56:00,76.0,64.0,29.85,SW,233,8.0,13.0,66,0.00,,,0.00,Meteo,2013-01-31 00:56:00,
2013-01-30 20:01:00,75.0,63.0,29.84,SSW,210,7.0,10.0,66,0.00,,,0.00,Meteo,2013-01-31 01:01:00,
2013-01-30 20:06:00,75.0,62.0,29.84,SW,216,12.0,18.0,65,0.00,,,0.00,Meteo,2013-01-31 01:06:00,
2013-01-30 20:11:00,75.0,62.0,29.84,SSW,207,8.0,16.0,65,0.00,,,0.00,Meteo,2013-01-31 01:11:00,
2013-01-30 20:16:00,75.0,62.0,29.84,SSW,205,8.0,13.0,65,0.00,,,0.00,Meteo,2013-01-31 01:16:00,
2013-01-30 20:21:00,75.0,63.0,29.84,SSW,213,10.0,16.0,66,0.00,,,0.00,Meteo,2013-01-31 01:21:00,
2013-01-30 20:26:00,74.0,62.0,29.84,SSW,211,7.0,12.0,66,0.00,,,0.00,Meteo,2013-01-31 01:26:00,
2013-01-30 20:31:00,74.0,62.0,29.84,SSW,213,8.0,14.0,67,0.00,,,0.00,Meteo,2013-01-31 01:31:00,
2013-01-30 20:36:00,74.0,62.0,29.84,SSW,202,7.0,17.0,67,0.00,,,0.00,Meteo,2013-01-31 01:36:00,
2013-01-30 20:41:00,74.0,63.0,29.84,SW,216,8.0,12.0,68,0.00,,,0.00,Meteo,2013-01-31 01:41:00,
2013-01-30 20:46:00,74.0,63.0,29.84,SSW,207,8.0,13.0,69,0.00,,,0.00,Meteo,2013-01-31 01:46:00,
2013-01-30 20:51:00,73.0,63.0,29.84,SW,214,9.0,16.0,70,0.00,,,0.00,Meteo,2013-01-31 01:51:00,
2013-01-30 20:56:00,73.0,63.0,29.84,SW,227,6.0,11.0,70,0.00,,,0.00,Meteo,2013-01-31 01:56:00,
2013-01-30 21:01:00,73.0,63.0,29.84,SSW,206,8.0,14.0,71,0.00,,,0.00,Meteo,2013-01-31 02:01:00,
2013-01-30 21:06:00,73.0,63.0,29.84,SW,220,6.0,12.0,71,0.00,,,0.00,Meteo,2013-01-31 02:06:00,
2013-01-30 21:11:00,73.0,63.0,29.84,SW,216,7.0,13.0,71,0.00,,,0.00,Meteo,2013-01-31 02:11:00,
2013-01-30 21:17:00,73.0,63.0,29.85,SW,222,7.0,12.0,72,0.00,,,0.00,Meteo,2013-01-31 02:17:00,
2013-01-30 21:22:00,73.0,63.0,29.85,SSW,210,6.0,10.0,72,0.00,,,0.00,Meteo,2013-01-31 02:22:00,
2013-01-30 21:27:00,72.0,63.0,29.85,SW,217,8.0,13.0,73,0.00,,,0.00,Meteo,2013-01-31 02:27:00,
2013-01-30 21:32:00,72.0,63.0,29.84,SSW,210,8.0,13.0,73,0.00,,,0.00,Meteo,2013-01-31 02:32:00,
2013-01-30 21:37:00,72.0,63.0,29.84,SSW,212,9.0,13.0,74,0.00,,,0.00,Meteo,2013-01-31 02:37:00,
2013-01-30 21:42:00,72.0,63.0,29.84,SSW,211,5.0,7.0,74,0.00,,,0.00,Meteo,2013-01-31 02:42:00,
2013-01-30 21:47:00,72.0,64.0,29.85,SSW,207,6.0,9.0,75,0.00,,,0.00,Meteo,2013-01-31 02:47:00,
2013-01-30 21:52:00,72.0,64.0,29.85,SSW,206,7.0,14.0,75,0.00,,,0.00,Meteo,2013-01-31 02:52:00,
2013-01-30 21:57:00,72.0,64.0,29.85,SW,214,8.0,13.0,76,0.00,,,0.00,Meteo,2013-01-31 02:57:00,
2013-01-30 22:02:00,72.0,64.0,29.85,SSW,208,7.0,12.0,76,0.00,,,0.00,Meteo,2013-01-31 03:02:00,
2013-01-30 22:07:00,72.0,64.0,29.85,SSW,201,6.0,11.0,76,0.00,,,0.00,Meteo,2013-01-31 03:07:00,
2013-01-30 22:12:00,72.0,64.0,29.85,SSW,209,6.0,13.0,76,0.00,,,0.00,Meteo,2013-01-31 03:12:00,
2013-01-30 22:17:00,72.0,64.0,29.85,SW,216,5.0,12.0,77,0.00,,,0.00,Meteo,2013-01-31 03:17:00,
2013-01-30 22:22:00,72.0,64.0,29.85,SW,214,5.0,11.0,77,0.00,,,0.00,Meteo,2013-01-31 03:22:00,
2013-01-30 22:27:00,71.0,64.0,29.85,SW,214,9.0,14.0,78,0.00,,,0.00,Meteo,2013-01-31 03:27:00,
2013-01-30 22:32:00,71.0,64.0,29.85,SSW,210,7.0,12.0,78,0.00,,,0.00,Meteo,2013-01-31 03:32:00,
2013-01-30 22:37:00,71.0,64.0,29.85,SSW,199,5.0,8.0,78,0.00,,,0.00,Meteo,2013-01-31 03:37:00,
2013-01-30 22:42:00,71.0,64.0,29.85,SSW,201,10.0,17.0,79,0.00,,,0.00,Meteo,2013-01-31 03:42:00,
2013-01-30 22:47:00,71.0,64.0,29.84,SSW,199,6.0,12.0,79,0.00,,,0.00,Meteo,2013-01-31 03:47:00,
2013-01-30 22:52:00,71.0,65.0,29.84,SSW,196,6.0,13.0,80,0.00,,,0.00,Meteo,2013-01-31 03:52:00,
2013-01-30 22:57:00,71.0,65.0,29.84,SSW,202,4.0,8.0,80,0.00,,,0.00,Meteo,2013-01-31 03:57:00,
2013-01-30 23:02:00,71.0,65.0,29.84,SSW,196,9.0,20.0,80,0.00,,,0.00,Meteo,2013-01-31 04:02:00,
2013-01-30 23:07:00,71.0,65.0,29.84,SSW,212,8.0,14.0,80,0.00,,,0.00,Meteo,2013-01-31 04:07:00,
2013-01-30 23:12:00,71.0,65.0,29.84,SSW,207,8.0,12.0,81,0.00,,,0.00,Meteo,2013-01-31 04:12:00,
2013-01-30 23:17:00,71.0,65.0,29.84,SSW,205,8.0,13.0,81,0.00,,,0.00,Meteo,2013-01-31 04:17:00,
2013-01-30 23:22:00,71.0,65.0,29.84,SSW,202,6.0,12.0,81,0.00,,,0.00,Meteo,2013-01-31 04:22:00,
2013-01-30 23:27:00,71.0,65.0,29.84,SSW,204,9.0,13.0,82,0.00,,,0.00,Meteo,2013-01-31 04:27:00,
2013-01-30 23:32:00,71.0,65.0,29.84,SSW,206,4.0,7.0,82,0.00,,,0.00,Meteo,2013-01-31 04:32:00,
2013-01-30 23:37:00,71.0,65.0,29.84,SSW,201,9.0,16.0,82,0.00,,,0.00,Meteo,2013-01-31 04:37:00,
2013-01-30 23:42:00,71.0,66.0,29.84,SSW,204,7.0,11.0,83,0.00,,,0.00,Meteo,2013-01-31 04:42:00,
2013-01-30 23:47:00,70.0,65.0,29.84,SSW,199,9.0,17.0,83,0.00,,,0.00,Meteo,2013-01-31 04:47:00,
2013-01-30 23:52:00,70.0,65.0,29.84,SSW,213,7.0,11.0,83,0.00,,,0.00,Meteo,2013-01-31 04:52:00,
2013-01-30 23:57:00,70.0,65.0,29.84,SW,222,5.0,7.0,83,0.00,,,0.00,Meteo,2013-01-31 04:57:00,